DLH8RP EDDF-LYTV

Flight info

Callsign DLH8RP
Flight time 1h 40m
Altitude 37000
Route CINDY8S/18 CINDY Z74 LAMPU DCT NOMBO Y161 MAH DCT VAVOR DCT RADIZ DCT GIMIX DCT SABAD DCT NERRA DCT TAZ
Aircraft A319/M-SDE3FGHIRWY/LB1

Departure

Time 2026-05-04 13:15
Airport Frankfurt Main Airport (EDDF)

Arrival

Time 2026-05-04 14:55
Airport Tivat Airport (LYTV)
Time Latitude Longitude Altitude Speed Heading
2026-05-04 12:46 50.04753 8.56881 356 ft 0 kts 294°
2026-05-04 12:59 50.04744 8.56914 362 ft 4 kts 293°
2026-05-04 12:59 50.04734 8.56946 363 ft 4 kts 292°
2026-05-04 12:59 50.04732 8.56983 362 ft 4 kts 230°
2026-05-04 13:00 50.04752 8.57005 365 ft 4 kts 204°
2026-05-04 13:00 50.04776 8.57022 364 ft 4 kts 205°
2026-05-04 13:00 50.04793 8.57034 361 ft 0 kts 205°
2026-05-04 13:04 50.04787 8.57029 363 ft 0 kts 205°
2026-05-04 13:04 50.04772 8.57019 363 ft 4 kts 205°
2026-05-04 13:04 50.04734 8.56992 362 ft 7 kts 205°
2026-05-04 13:04 50.04688 8.56959 359 ft 8 kts 205°
2026-05-04 13:05 50.04637 8.56923 361 ft 8 kts 201°
2026-05-04 13:05 50.04579 8.56900 357 ft 8 kts 192°
2026-05-04 13:05 50.04536 8.56885 359 ft 7 kts 193°
2026-05-04 13:05 50.04487 8.56866 359 ft 9 kts 197°
2026-05-04 13:06 50.04444 8.56796 359 ft 10 kts 249°
2026-05-04 13:06 50.04417 8.56683 358 ft 13 kts 250°
2026-05-04 13:06 50.04384 8.56544 362 ft 15 kts 250°
2026-05-04 13:06 50.04345 8.56383 356 ft 16 kts 250°
2026-05-04 13:07 50.04312 8.56242 361 ft 12 kts 250°
2026-05-04 13:07 50.04282 8.56118 358 ft 13 kts 249°
2026-05-04 13:07 50.04250 8.55984 360 ft 14 kts 249°
2026-05-04 13:07 50.04215 8.55838 355 ft 15 kts 250°
2026-05-04 13:08 50.04177 8.55681 358 ft 16 kts 249°
2026-05-04 13:08 50.04139 8.55519 356 ft 15 kts 249°
2026-05-04 13:08 50.04103 8.55369 356 ft 15 kts 249°
2026-05-04 13:08 50.04068 8.55225 354 ft 14 kts 249°
2026-05-04 13:09 50.04034 8.55083 355 ft 14 kts 249°
2026-05-04 13:09 50.03999 8.54935 357 ft 16 kts 249°
2026-05-04 13:09 50.03956 8.54757 352 ft 18 kts 249°
2026-05-04 13:09 50.03910 8.54566 349 ft 20 kts 250°
2026-05-04 13:10 50.03869 8.54392 349 ft 14 kts 246°
2026-05-04 13:10 50.03811 8.54260 345 ft 15 kts 239°
2026-05-04 13:10 50.03771 8.54101 349 ft 16 kts 249°
2026-05-04 13:10 50.03730 8.53931 347 ft 17 kts 250°
2026-05-04 13:11 50.03688 8.53754 348 ft 18 kts 250°
2026-05-04 13:11 50.03642 8.53571 338 ft 19 kts 247°
2026-05-04 13:11 50.03595 8.53379 339 ft 19 kts 249°
2026-05-04 13:11 50.03550 8.53192 339 ft 18 kts 249°
2026-05-04 13:12 50.03506 8.53010 338 ft 18 kts 249°
2026-05-04 13:12 50.03466 8.52852 335 ft 13 kts 246°
2026-05-04 13:12 50.03434 8.52731 333 ft 6 kts 250°
2026-05-04 13:12 50.03429 8.52712 335 ft 0 kts 250°
2026-05-04 13:13 50.03428 8.52706 332 ft 2 kts 250°
2026-05-04 13:13 50.03420 8.52675 336 ft 4 kts 250°
2026-05-04 13:13 50.03404 8.52610 332 ft 7 kts 239°
2026-05-04 13:13 50.03367 8.52592 335 ft 5 kts 179°
2026-05-04 13:14 50.03324 8.52593 336 ft 10 kts 179°
2026-05-04 13:14 50.03026 8.52597 333 ft 80 kts 180°
2026-05-04 13:14 50.02246 8.52604 335 ft 141 kts 180°
2026-05-04 13:14 50.01115 8.52621 492 ft 175 kts 181°
2026-05-04 13:15 49.99893 8.52629 1212 ft 176 kts 181°
2026-05-04 13:15 49.98663 8.52629 1942 ft 183 kts 182°
2026-05-04 13:15 49.97323 8.52776 2347 ft 204 kts 169°
2026-05-04 13:15 49.95979 8.53669 2859 ft 222 kts 148°
2026-05-04 13:16 49.94970 8.55635 3457 ft 239 kts 121°
2026-05-04 13:16 49.94212 8.57956 3873 ft 245 kts 115°
2026-05-04 13:16 49.93869 8.60551 4178 ft 256 kts 91°
2026-05-04 13:16 49.93945 8.63429 4755 ft 275 kts 89°
2026-05-04 13:17 49.93852 8.66443 5640 ft 283 kts 102°
2026-05-04 13:17 49.93139 8.69280 6588 ft 285 kts 123°
2026-05-04 13:17 49.91863 8.71606 7570 ft 282 kts 142°
2026-05-04 13:17 49.90279 8.73364 8585 ft 280 kts 148°
2026-05-04 13:18 49.88771 8.75275 9598 ft 282 kts 136°
2026-05-04 13:18 49.87592 8.77738 10441 ft 291 kts 123°
2026-05-04 13:18 49.86552 8.80589 10763 ft 315 kts 122°
2026-05-04 13:18 49.85445 8.83663 11060 ft 338 kts 121°
2026-05-04 13:19 49.84302 8.86852 11642 ft 348 kts 121°
2026-05-04 13:19 49.83503 8.89080 12148 ft 351 kts 121°
2026-05-04 13:19 49.81911 8.93502 13141 ft 357 kts 121°
2026-05-04 13:19 49.80687 8.96883 13883 ft 362 kts 121°
2026-05-04 13:20 49.79439 9.00305 14689 ft 368 kts 121°
2026-05-04 13:20 49.78168 9.03787 15484 ft 373 kts 122°
2026-05-04 13:20 49.76894 9.07317 16167 ft 378 kts 119°
2026-05-04 13:20 49.75900 9.11131 16808 ft 386 kts 109°
2026-05-04 13:21 49.75207 9.15162 17436 ft 389 kts 110°
2026-05-04 13:21 49.74135 9.19004 18065 ft 390 kts 122°
2026-05-04 13:21 49.72612 9.22463 18645 ft 390 kts 133°
2026-05-04 13:21 49.70810 9.25617 19228 ft 392 kts 135°
2026-05-04 13:22 49.68992 9.28793 19798 ft 396 kts 134°
2026-05-04 13:22 49.67171 9.31996 20348 ft 399 kts 134°
2026-05-04 13:22 49.65334 9.35236 20900 ft 403 kts 134°
2026-05-04 13:22 49.63484 9.38502 21440 ft 406 kts 135°
2026-05-04 13:23 49.61453 9.41506 21962 ft 405 kts 144°
2026-05-04 13:23 49.59122 9.43941 22498 ft 405 kts 153°
2026-05-04 13:23 49.56691 9.46158 23009 ft 408 kts 153°
2026-05-04 13:23 49.54240 9.48390 23511 ft 411 kts 153°
2026-05-04 13:24 49.51774 9.50636 23921 ft 413 kts 153°
2026-05-04 13:24 49.49293 9.52896 24327 ft 416 kts 153°
2026-05-04 13:24 49.46802 9.55167 24720 ft 419 kts 153°
2026-05-04 13:25 49.41750 9.59771 25518 ft 424 kts 153°
2026-05-04 13:25 49.39205 9.62081 25917 ft 427 kts 153°
2026-05-04 13:25 49.36640 9.64407 26311 ft 429 kts 153°
2026-05-04 13:25 49.34955 9.66011 26558 ft 433 kts 149°
2026-05-04 13:26 49.32600 9.68949 26933 ft 440 kts 140°
2026-05-04 13:26 49.30424 9.72286 27297 ft 444 kts 139°
2026-05-04 13:26 49.28235 9.75643 27656 ft 446 kts 139°
2026-05-04 13:26 49.26028 9.79012 28013 ft 449 kts 139°
2026-05-04 13:27 49.23807 9.82389 28352 ft 452 kts 139°
2026-05-04 13:27 49.21568 9.85781 28691 ft 454 kts 139°
2026-05-04 13:27 49.19316 9.89193 29021 ft 457 kts 139°
2026-05-04 13:27 49.17053 9.92625 29342 ft 459 kts 139°
2026-05-04 13:28 49.14779 9.96071 29662 ft 462 kts 139°
2026-05-04 13:28 49.12490 9.99536 29985 ft 464 kts 139°
2026-05-04 13:28 49.10201 10.02997 30381 ft 463 kts 139°
2026-05-04 13:28 49.07914 10.06450 30761 ft 462 kts 139°
2026-05-04 13:29 49.05650 10.09854 31134 ft 462 kts 139°
2026-05-04 13:29 49.03334 10.13235 31527 ft 461 kts 140°
2026-05-04 13:29 49.00987 10.16561 32017 ft 460 kts 141°
2026-05-04 13:29 48.98631 10.19846 32500 ft 459 kts 141°
2026-05-04 13:30 48.96275 10.23113 32889 ft 459 kts 141°
2026-05-04 13:30 48.93920 10.26389 33441 ft 458 kts 141°
2026-05-04 13:30 48.91573 10.29676 33961 ft 458 kts 141°
2026-05-04 13:30 48.89241 10.32961 34337 ft 457 kts 141°
2026-05-04 13:31 48.86917 10.36245 34687 ft 456 kts 141°
2026-05-04 13:31 48.84593 10.39530 35045 ft 455 kts 141°
2026-05-04 13:31 48.82316 10.42767 35384 ft 455 kts 140°
2026-05-04 13:31 48.80072 10.46154 35707 ft 455 kts 138°
2026-05-04 13:32 48.77890 10.49633 36019 ft 455 kts 136°
2026-05-04 13:32 48.75742 10.53163 36309 ft 455 kts 136°
2026-05-04 13:32 48.73606 10.56702 36607 ft 455 kts 136°
2026-05-04 13:32 48.71463 10.60224 36893 ft 454 kts 136°
2026-05-04 13:33 48.67132 10.67184 36997 ft 454 kts 137°
2026-05-04 13:33 48.62763 10.74080 36990 ft 454 kts 137°
2026-05-04 13:34 48.58402 10.80965 36980 ft 454 kts 137°
2026-05-04 13:34 48.54084 10.87846 36975 ft 454 kts 136°
2026-05-04 13:35 48.47586 10.98245 36972 ft 454 kts 137°
2026-05-04 13:36 48.43208 11.05092 36971 ft 454 kts 137°
2026-05-04 13:36 48.38809 11.11886 36967 ft 454 kts 137°
2026-05-04 13:37 48.34406 11.18702 36970 ft 454 kts 137°
2026-05-04 13:37 48.30014 11.25510 36968 ft 454 kts 137°
2026-05-04 13:38 48.25846 11.32640 36967 ft 458 kts 126°
2026-05-04 13:38 48.22610 11.40897 36968 ft 459 kts 123°
2026-05-04 13:39 48.19409 11.49181 36968 ft 459 kts 123°
2026-05-04 13:39 48.16192 11.57468 36970 ft 460 kts 123°
2026-05-04 13:40 48.12978 11.65732 36970 ft 460 kts 123°
2026-05-04 13:40 48.09775 11.73944 36971 ft 460 kts 123°
2026-05-04 13:41 48.06538 11.82181 36966 ft 459 kts 123°
2026-05-04 13:41 48.03302 11.90419 36966 ft 460 kts 123°
2026-05-04 13:42 47.98442 12.02771 36964 ft 459 kts 123°
2026-05-04 13:42 47.95192 12.10969 36957 ft 459 kts 123°
2026-05-04 13:43 47.91183 12.18239 36956 ft 452 kts 141°
2026-05-04 13:43 47.86384 12.24252 36951 ft 451 kts 142°
2026-05-04 13:44 47.81589 12.30276 36945 ft 451 kts 142°
2026-05-04 13:44 47.76796 12.36273 36947 ft 450 kts 142°
2026-05-04 13:45 47.71990 12.42247 36939 ft 450 kts 142°
2026-05-04 13:45 47.67220 12.48163 36942 ft 450 kts 142°
2026-05-04 13:46 47.62409 12.54114 36942 ft 450 kts 143°
2026-05-04 13:46 47.57451 12.59759 36940 ft 449 kts 146°
2026-05-04 13:47 47.52383 12.65141 36948 ft 449 kts 147°
2026-05-04 13:47 47.47317 12.70532 36954 ft 449 kts 146°
2026-05-04 13:48 47.42279 12.75976 36958 ft 448 kts 146°
2026-05-04 13:48 47.37254 12.81432 36967 ft 448 kts 146°
2026-05-04 13:49 47.32226 12.86872 36968 ft 448 kts 146°
2026-05-04 13:49 47.27194 12.92280 36971 ft 448 kts 146°
2026-05-04 13:50 47.22158 12.97680 36980 ft 448 kts 146°
2026-05-04 13:50 47.17123 13.03080 36999 ft 448 kts 146°
2026-05-04 13:51 47.12081 13.08478 37003 ft 448 kts 146°
2026-05-04 13:51 47.07035 13.13862 36998 ft 448 kts 146°
2026-05-04 13:52 46.99453 13.21918 37021 ft 449 kts 146°
2026-05-04 13:53 46.94396 13.27268 37031 ft 448 kts 146°
2026-05-04 13:53 46.89347 13.32617 37032 ft 448 kts 146°
2026-05-04 13:54 46.81754 13.40605 37042 ft 448 kts 147°
2026-05-04 13:55 46.74163 13.48592 37040 ft 449 kts 146°
2026-05-04 13:55 46.66557 13.56566 37032 ft 449 kts 147°
2026-05-04 13:56 46.61469 13.61865 37038 ft 450 kts 147°
2026-05-04 13:57 46.53820 13.69823 37046 ft 451 kts 147°
2026-05-04 13:58 46.43814 13.80762 37056 ft 453 kts 144°
2026-05-04 13:58 46.36357 13.89184 37059 ft 453 kts 145°
2026-05-04 13:59 46.31350 13.94733 37062 ft 453 kts 145°
2026-05-04 14:00 46.23818 14.03037 37076 ft 454 kts 145°
2026-05-04 14:00 46.16279 14.11344 37079 ft 454 kts 145°
2026-05-04 14:01 46.11244 14.16883 37077 ft 455 kts 145°
2026-05-04 14:02 46.03692 14.25158 37073 ft 455 kts 145°
2026-05-04 14:02 45.98635 14.30663 37070 ft 455 kts 145°
2026-05-04 14:03 45.93586 14.36151 37069 ft 455 kts 145°
2026-05-04 14:03 45.88530 14.41650 37070 ft 456 kts 145°
2026-05-04 14:04 45.80970 14.49859 37071 ft 457 kts 145°
2026-05-04 14:04 45.75889 14.55342 37082 ft 457 kts 145°
2026-05-04 14:05 45.68261 14.63564 37075 ft 458 kts 145°
2026-05-04 14:06 45.63164 14.69026 37078 ft 458 kts 145°
2026-05-04 14:06 45.58063 14.74489 37078 ft 458 kts 145°
2026-05-04 14:07 45.52960 14.79955 37079 ft 459 kts 145°
2026-05-04 14:07 45.47853 14.85410 37086 ft 459 kts 145°
2026-05-04 14:08 45.42775 14.90868 37089 ft 460 kts 144°
2026-05-04 14:08 45.37724 14.96467 37091 ft 460 kts 143°
2026-05-04 14:09 45.30144 15.04872 37085 ft 461 kts 144°
2026-05-04 14:10 45.22521 15.13219 37087 ft 461 kts 144°
2026-05-04 14:10 45.17432 15.18760 37086 ft 461 kts 144°
2026-05-04 14:11 45.12343 15.24308 37081 ft 462 kts 144°
2026-05-04 14:11 45.04725 15.32577 37079 ft 462 kts 144°
2026-05-04 14:12 44.99608 15.38118 37075 ft 463 kts 144°
2026-05-04 14:13 44.91927 15.46403 37078 ft 463 kts 144°
2026-05-04 14:13 44.86809 15.51925 37079 ft 464 kts 144°
2026-05-04 14:14 44.81676 15.57454 37075 ft 464 kts 144°
2026-05-04 14:14 44.74002 15.65683 37081 ft 465 kts 144°
2026-05-04 14:15 44.63680 15.76684 37077 ft 466 kts 144°
2026-05-04 14:16 44.55927 15.84928 37084 ft 466 kts 144°
2026-05-04 14:17 44.48998 15.92271 37095 ft 467 kts 144°
2026-05-04 14:18 44.41246 16.00459 37100 ft 468 kts 144°
2026-05-04 14:19 44.30833 16.11412 37110 ft 469 kts 144°
2026-05-04 14:19 44.25614 16.16873 37109 ft 469 kts 144°
2026-05-04 14:20 44.20393 16.22323 37112 ft 469 kts 144°
2026-05-04 14:20 44.15163 16.27788 37113 ft 470 kts 144°
2026-05-04 14:21 44.07305 16.35978 37116 ft 471 kts 144°
2026-05-04 14:21 44.02051 16.41425 37114 ft 471 kts 144°
2026-05-04 14:22 43.96798 16.46863 37112 ft 471 kts 144°
2026-05-04 14:22 43.91536 16.52303 37114 ft 472 kts 144°
2026-05-04 14:23 43.83633 16.60447 37113 ft 472 kts 144°
2026-05-04 14:24 43.78387 16.65824 37110 ft 472 kts 144°
2026-05-04 14:24 43.73103 16.71238 37110 ft 473 kts 144°
2026-05-04 14:25 43.67812 16.76656 37104 ft 473 kts 144°
2026-05-04 14:25 43.59870 16.84767 37103 ft 474 kts 144°
2026-05-04 14:26 43.54558 16.90155 37103 ft 474 kts 144°
2026-05-04 14:26 43.49242 16.95545 37104 ft 474 kts 144°
2026-05-04 14:27 43.43959 17.00891 37102 ft 475 kts 144°
2026-05-04 14:27 43.38637 17.06273 37107 ft 475 kts 144°
2026-05-04 14:28 43.33301 17.11649 37103 ft 475 kts 144°
2026-05-04 14:28 43.27966 17.17015 37107 ft 476 kts 144°
2026-05-04 14:29 43.17275 17.27737 37111 ft 476 kts 144°
2026-05-04 14:30 43.11920 17.33093 37106 ft 476 kts 144°
2026-05-04 14:31 43.03867 17.41093 37113 ft 477 kts 144°
2026-05-04 14:32 42.93145 17.51781 37120 ft 478 kts 141°
2026-05-04 14:32 42.88605 17.58279 37088 ft 477 kts 124°
2026-05-04 14:32 42.86757 17.62012 36822 ft 476 kts 122°
2026-05-04 14:33 42.84919 17.65786 36530 ft 478 kts 122°
2026-05-04 14:33 42.83086 17.69562 35794 ft 481 kts 122°
2026-05-04 14:33 42.81233 17.73381 35070 ft 482 kts 122°
2026-05-04 14:33 42.79376 17.77191 34363 ft 484 kts 122°
2026-05-04 14:34 42.77510 17.81013 33611 ft 485 kts 122°
2026-05-04 14:34 42.75635 17.84841 32839 ft 486 kts 122°
2026-05-04 14:34 42.73757 17.88668 32087 ft 487 kts 122°
2026-05-04 14:34 42.71884 17.92486 31360 ft 487 kts 122°
2026-05-04 14:35 42.69990 17.96336 30657 ft 488 kts 122°
2026-05-04 14:35 42.68100 18.00170 29968 ft 488 kts 122°
2026-05-04 14:35 42.66211 18.03998 29210 ft 489 kts 122°
2026-05-04 14:35 42.64316 18.07837 28459 ft 488 kts 122°
2026-05-04 14:36 42.62429 18.11647 27741 ft 483 kts 122°
2026-05-04 14:36 42.60565 18.15408 27046 ft 478 kts 122°
2026-05-04 14:36 42.58712 18.19136 26366 ft 473 kts 122°
2026-05-04 14:36 42.56886 18.22813 25696 ft 467 kts 122°
2026-05-04 14:37 42.55079 18.26449 25043 ft 462 kts 122°
2026-05-04 14:37 42.53297 18.30033 24414 ft 457 kts 122°
2026-05-04 14:37 42.51530 18.33579 23916 ft 452 kts 122°
2026-05-04 14:37 42.49777 18.37090 23398 ft 447 kts 122°
2026-05-04 14:38 42.48038 18.40568 22861 ft 443 kts 122°
2026-05-04 14:38 42.46315 18.44008 22309 ft 439 kts 122°
2026-05-04 14:38 42.44604 18.47418 21611 ft 436 kts 122°
2026-05-04 14:38 42.42937 18.50750 21004 ft 431 kts 122°
2026-05-04 14:39 42.41261 18.54099 20390 ft 428 kts 121°
2026-05-04 14:39 42.39603 18.57407 19827 ft 424 kts 121°
2026-05-04 14:39 42.37953 18.60692 19270 ft 421 kts 122°
2026-05-04 14:40 42.34681 18.67194 18164 ft 415 kts 122°
2026-05-04 14:40 42.33062 18.70403 17627 ft 411 kts 122°
2026-05-04 14:40 42.31454 18.73585 17091 ft 407 kts 122°
2026-05-04 14:40 42.29863 18.76730 16560 ft 404 kts 122°
2026-05-04 14:41 42.28312 18.79865 16014 ft 399 kts 118°
2026-05-04 14:41 42.27054 18.83181 15493 ft 394 kts 113°
2026-05-04 14:41 42.24760 18.89509 15186 ft 352 kts 113°
2026-05-04 14:42 42.22711 18.95113 14672 ft 322 kts 112°
2026-05-04 14:42 42.21730 18.97808 14324 ft 317 kts 112°
2026-05-04 14:42 42.20645 19.00396 14086 ft 318 kts 123°
2026-05-04 14:43 42.19176 19.02579 13844 ft 320 kts 136°
2026-05-04 14:43 42.17356 19.04326 13523 ft 322 kts 144°
2026-05-04 14:43 42.15459 19.05974 13032 ft 324 kts 145°
2026-05-04 14:43 42.13577 19.07608 12668 ft 320 kts 144°
2026-05-04 14:44 42.11707 19.09236 12229 ft 320 kts 144°
2026-05-04 14:44 42.09671 19.10414 11663 ft 321 kts 168°
2026-05-04 14:44 42.07478 19.10281 11264 ft 313 kts 198°
2026-05-04 14:44 42.05625 19.08950 11056 ft 296 kts 223°
2026-05-04 14:45 42.04367 19.06826 10519 ft 289 kts 248°
2026-05-04 14:45 42.03621 19.04327 10011 ft 286 kts 252°
2026-05-04 14:45 42.02906 19.01844 9458 ft 284 kts 251°
2026-05-04 14:45 42.02198 18.99399 8975 ft 278 kts 252°
2026-05-04 14:46 42.01862 18.96903 8544 ft 268 kts 277°
2026-05-04 14:46 42.02381 18.94568 8131 ft 259 kts 304°
2026-05-04 14:46 42.03588 18.92845 7780 ft 253 kts 330°
2026-05-04 14:46 42.05172 18.91876 7343 ft 250 kts 341°
2026-05-04 14:47 42.06807 18.91049 6950 ft 251 kts 341°
2026-05-04 14:47 42.08444 18.90216 6558 ft 251 kts 341°
2026-05-04 14:47 42.10077 18.89380 6162 ft 251 kts 340°
2026-05-04 14:47 42.11706 18.88543 5741 ft 248 kts 340°
2026-05-04 14:48 42.13310 18.87717 5342 ft 244 kts 340°
2026-05-04 14:48 42.14877 18.86910 5027 ft 238 kts 340°
2026-05-04 14:48 42.16390 18.86131 4727 ft 228 kts 339°
2026-05-04 14:48 42.17842 18.85383 4423 ft 220 kts 339°
2026-05-04 14:49 42.19241 18.84663 4165 ft 209 kts 339°
2026-05-04 14:49 42.20573 18.83977 3881 ft 200 kts 338°
2026-05-04 14:49 42.21841 18.83324 3638 ft 191 kts 338°
2026-05-04 14:49 42.23049 18.82701 3400 ft 181 kts 338°
2026-05-04 14:50 42.24195 18.82111 3148 ft 172 kts 338°
2026-05-04 14:50 42.25276 18.81554 2946 ft 161 kts 337°
2026-05-04 14:50 42.26275 18.81039 2767 ft 146 kts 337°
2026-05-04 14:50 42.27172 18.80577 2633 ft 137 kts 336°
2026-05-04 14:51 42.28049 18.80124 2451 ft 133 kts 336°
2026-05-04 14:51 42.28917 18.79674 2264 ft 132 kts 337°
2026-05-04 14:51 42.29778 18.79230 2083 ft 133 kts 338°
2026-05-04 14:51 42.30637 18.78784 1868 ft 132 kts 337°
2026-05-04 14:52 42.31493 18.78339 1699 ft 133 kts 336°
2026-05-04 14:52 42.32355 18.77890 1517 ft 134 kts 334°
2026-05-04 14:52 42.33226 18.77431 1381 ft 136 kts 337°
2026-05-04 14:52 42.34095 18.76974 1216 ft 133 kts 336°
2026-05-04 14:53 42.34962 18.76534 1017 ft 133 kts 337°
2026-05-04 14:53 42.35825 18.76093 890 ft 133 kts 337°
2026-05-04 14:53 42.36686 18.75632 775 ft 132 kts 336°
2026-05-04 14:53 42.37547 18.75197 602 ft 132 kts 337°
2026-05-04 14:54 42.38366 18.74667 436 ft 130 kts 327°
2026-05-04 14:54 42.39092 18.73950 275 ft 129 kts 318°
2026-05-04 14:54 42.39765 18.73152 67 ft 127 kts 317°
2026-05-04 14:54 42.40357 18.72460 50 ft 91 kts 320°
2026-05-04 14:55 42.40700 18.72054 40 ft 42 kts 319°
2026-05-04 14:55 42.40882 18.71839 46 ft 23 kts 319°
2026-05-04 14:55 42.40958 18.71799 47 ft 8 kts 25°
2026-05-04 14:55 42.40989 18.71839 47 ft 4 kts 47°
2026-05-04 14:56 42.40989 18.71840 47 ft 0 kts 47°
2026-05-04 14:56 42.40992 18.71844 47 ft 2 kts 47°
2026-05-04 14:56 42.41005 18.71856 48 ft 2 kts 27°
2026-05-04 14:56 42.41019 18.71857 48 ft 2 kts 353°
2026-05-04 14:57 42.41041 18.71837 48 ft 5 kts 318°
2026-05-04 14:57 42.41065 18.71802 48 ft 4 kts 323°
2026-05-04 14:57 42.41084 18.71805 46 ft 1 kts 23°
2026-05-04 14:57 42.41088 18.71815 46 ft 1 kts 71°
2026-05-04 14:58 42.41085 18.71825 45 ft 1 kts 117°
2026-05-04 14:58 42.41076 18.71835 45 ft 2 kts 140°
2026-05-04 14:58 42.41070 18.71842 46 ft 0 kts 140°
2026-05-04 14:59 42.41071 18.71846 46 ft 0 kts 160°